| time (UTC) | temp C | wind direction | speed KPH | gust KPH | rain 1hr cm | rain 24hr cm | rain mn cm | humidity % | barometer mb |
| 20260508000117 | 7 | 226 | 0.0 | 0.0 | 0.00 | 0.99 | 0.00 | 95 | 1015.8 |
| 20260507234613 | 7 | 226 | 0.0 | 0.0 | 0.00 | 0.99 | 0.00 | 95 | 1016.0 |
| 20260507231622 | 7 | 226 | 0.0 | 0.0 | 0.00 | 0.99 | 0.00 | 95 | 1016.2 |
| 20260507230114 | 7 | 226 | 0.0 | 0.0 | 0.00 | 0.99 | 0.00 | 95 | 1016.3 |
| 20260507223115 | 7 | 226 | 0.0 | 3.2 | 0.00 | 0.99 | 0.00 | 95 | 1016.1 |
| 20260507220145 | 8 | 226 | 0.0 | 0.0 | 0.00 | 0.99 | 0.00 | 94 | 1016.2 |
| 20260507213118 | 8 | 226 | 0.0 | 4.8 | 0.00 | 0.99 | 0.99 | 95 | 1016.2 |
| 20260507211612 | 8 | 226 | 0.0 | 4.8 | 0.00 | 0.99 | 0.99 | 94 | 1016.1 |
| 20260507204621 | 8 | 226 | 0.0 | 1.6 | 0.00 | 0.99 | 0.99 | 95 | 1016.1 |
| 20260507203119 | 8 | 226 | 0.0 | 0.0 | 0.00 | 0.99 | 0.99 | 94 | 1016.0 |
| 20260507201618 | 8 | 226 | 0.0 | 4.8 | 0.00 | 0.99 | 0.99 | 94 | 1015.9 |
| 20260507194636 | 8 | 226 | 0.0 | 3.2 | 0.00 | 1.02 | 0.99 | 94 | 1015.7 |
| 20260507191618 | 8 | 226 | 0.0 | 1.6 | 0.00 | 1.02 | 0.99 | 93 | 1015.2 |
| 20260507184624 | 9 | 226 | 0.0 | 1.6 | 0.00 | 1.04 | 0.99 | 93 | 1014.9 |
| 20260507181619 | 9 | 226 | 0.0 | 4.8 | 0.00 | 1.04 | 0.99 | 92 | 1014.4 |
| 20260507180110 | 10 | 226 | 0.0 | 1.6 | 0.00 | 1.04 | 0.99 | 92 | 1014.3 |
| 20260507173111 | 10 | 226 | 0.0 | 3.2 | 0.00 | 1.04 | 0.99 | 91 | 1013.8 |
| 20260507170118 | 11 | 226 | 0.0 | 3.2 | 0.00 | 1.04 | 0.99 | 90 | 1013.5 |
| 20260507164645 | 10 | 226 | 0.0 | 3.2 | 0.00 | 1.04 | 0.99 | 90 | 1013.7 |
| 20260507161619 | 12 | 226 | 1.6 | 6.4 | 0.00 | 1.04 | 0.99 | 86 | 1013.6 |
| 20260507160118 | 12 | 226 | 3.2 | 4.8 | 0.00 | 1.04 | 0.99 | 86 | 1013.5 |
| 20260507154611 | 13 | 226 | 1.6 | 4.8 | 0.00 | 1.04 | 0.99 | 80 | 1013.3 |
| 20260507151620 | 13 | 226 | 1.6 | 6.4 | 0.00 | 1.04 | 0.99 | 79 | 1013.3 |
| 20260507144620 | 12 | 252 | 3.2 | 6.4 | 0.00 | 1.22 | 0.99 | 86 | 1013.4 |
| 20260507141619 | 12 | 246 | 3.2 | 6.4 | 0.05 | 1.22 | 0.99 | 86 | 1013.4 |
| 20260507134623 | 11 | 232 | 1.6 | 6.4 | 0.10 | 1.42 | 0.97 | 94 | 1013.7 |
| 20260507131622 | 8 | 217 | 0.0 | 3.2 | 0.48 | 1.37 | 0.91 | 95 | 1014.0 |
| 20260507130113 | 6 | 217 | 0.0 | 3.2 | 0.81 | 1.37 | 0.89 | 94 | 1014.1 |
| 20260507123114 | 6 | 217 | 0.0 | 4.8 | 0.71 | 1.32 | 0.76 | 90 | 1014.2 |
| 20260507120120 | 10 | 221 | 0.0 | 0.0 | 0.05 | 0.64 | 0.08 | 88 | 1014.0 |
| 20260507114619 | 10 | 221 | 0.0 | 0.0 | 0.05 | 0.76 | 0.05 | 88 | 1013.6 |
| 20260507111619 | 11 | 244 | 0.0 | 0.0 | 0.03 | 0.71 | 0.03 | 86 | 1013.4 |
| 20260507104617 | 11 | 248 | 0.0 | 0.0 | 0.03 | 0.84 | 0.03 | 86 | 1013.4 |
| 20260507103115 | 11 | 234 | 0.0 | 0.0 | 0.03 | 0.84 | 0.03 | 85 | 1013.4 |
| 20260507100119 | 12 | 236 | 0.0 | 0.0 | 0.00 | 0.81 | 0.00 | 82 | 1013.5 |
| 20260507093124 | 12 | 234 | 0.0 | 0.0 | 0.00 | 0.84 | 0.00 | 78 | 1013.2 |
| 20260507091617 | 13 | 5 | 0.0 | 0.0 | 0.00 | 0.84 | 0.00 | 83 | 1013.1 |
| 20260507084622 | 11 | 274 | 0.0 | 0.0 | 0.00 | 0.84 | 0.00 | 89 | 1013.4 |
| 20260507081619 | 10 | 217 | 0.0 | 0.0 | 0.00 | 0.84 | 0.00 | 83 | 1013.2 |
| 20260507074621 | 9 | 211 | 0.0 | 0.0 | 0.00 | 0.91 | 0.00 | 95 | 1012.9 |
| 20260507073125 | 8 | 286 | 0.0 | 0.0 | 0.00 | 0.91 | 0.00 | 96 | 1012.9 |
| 20260507070123 | 7 | 234 | 0.0 | 0.0 | 0.00 | 0.91 | 0.00 | 97 | 1012.6 |
| 20260507063119 | 7 | 234 | 0.0 | 0.0 | 0.00 | 1.27 | 0.00 | 97 | 1012.5 |
| 20260507061612 | 6 | 234 | 0.0 | 0.0 | 0.00 | 1.27 | 0.00 | 97 | 1012.5 |
| 20260507054618 | 6 | 234 | 0.0 | 0.0 | 0.00 | 1.47 | 0.00 | 97 | 1012.4 |
| 20260507053111 | 5 | 234 | 0.0 | 0.0 | 0.00 | 1.47 | 0.00 | 97 | 1012.2 |
| 20260507050119 | 3 | 234 | 0.0 | 0.0 | 0.00 | 1.47 | 0.00 | 96 | 1011.7 |
| 20260507043127 | 3 | 234 | 0.0 | 0.0 | 0.00 | 1.47 | 0.00 | 96 | 1011.6 |
| 20260507041617 | 3 | 234 | 0.0 | 0.0 | 0.00 | 1.47 | 0.00 | 96 | 1011.6 |
| 20260507040114 | 3 | 234 | 0.0 | 0.0 | 0.00 | 1.47 | 0.00 | 96 | 1011.4 |
| 20260507034622 | 3 | 234 | 0.0 | 0.0 | 0.00 | 1.47 | 0.00 | 96 | 1011.2 |
| 20260507033110 | 3 | 234 | 0.0 | 0.0 | 0.00 | 1.47 | 0.00 | 96 | 1011.4 |
| 20260507030108 | 4 | 234 | 0.0 | 0.0 | 0.00 | 1.47 | 0.00 | 96 | 1011.3 |
| 20260507023117 | 4 | 234 | 0.0 | 0.0 | 0.00 | 1.47 | 0.00 | 96 | 1011.1 |
| 20260507020120 | 4 | 234 | 0.0 | 0.0 | 0.00 | 1.47 | 0.00 | 96 | 1011.2 |
| 20260507014614 | 5 | 234 | 0.0 | 0.0 | 0.00 | 1.47 | 0.00 | 96 | 1011.1 |
| 20260507013112 | 5 | 234 | 0.0 | 0.0 | 0.00 | 1.47 | 0.00 | 96 | 1011.2 |
| 20260507011612 | 5 | 234 | 0.0 | 0.0 | 0.00 | 1.47 | 0.00 | 96 | 1011.2 |
| 20260507004620 | 6 | 234 | 0.0 | 0.0 | 0.00 | 1.47 | 0.00 | 96 | 1011.0 |